[[{"header":{"parameterUnit":"m.s-1","parameterCategory":1,"la1":30.2991,"la2":30.254,"lo1":-89.0895,"lo2":-89.0444,"dy":0.0017,"dx":0.0017,"nx":28,"ny":28,"refTime":"2025-11-20T03:00:00:Z","depth":0,"parameterNumber":2,"parameterNumberName":"U-component_of_WINDS"},"data":[0,0,0,0,0,0,0,0,0,0,0,0,0,0,0,0,0,0,0,0,0,0,0,0,0,0,0,0,0,0,0,0,0,0,0,0,0,0,0,0,0,0,0,0,0,0,0,0,0,0,0,0,0,0,0,0,0,0,-2.0519,-2.0519,0,-2.0543,-2.0543,-2.0543,-2.0488,-2.0486,-2.0484,-2.0483,-2.0509,-2.0512,-2.0514,0,0,0,0,0,0,0,0,0,0,0,0,0,-2.0427,-2.0429,-2.0518,-2.0519,-2.0519,-2.0543,-2.0543,-2.0543,-2.0488,-2.0486,-2.0484,-2.0482,-2.0509,-2.0511,-2.0514,0,0,0,0,0,0,0,0,0,0,0,0,0,-2.046,-2.0429,-2.0518,-2.0494,-2.0493,-2.0543,-2.0543,-2.0543,-2.0489,-2.0486,-2.0483,-2.0481,-2.0508,-2.0511,-2.0515,-2.059,0,0,-2.0526,-2.0527,0,0,0,0,0,0,0,0,-2.0459,-2.0464,-2.0498,-2.0496,-2.0494,-2.051,-2.052,-2.0559,-2.0489,-2.049,-2.0483,-2.048,-2.0512,-2.0515,-2.0525,-2.0591,-2.0592,-2.0526,-2.0528,-2.053,-2.0531,0,0,0,0,0,0,0,-2.0456,-2.0463,-2.0528,-2.0498,-2.0496,-2.0483,-2.0485,-2.0527,-2.0516,-2.049,-2.0486,-2.049,-2.051,-2.0522,-2.0525,-2.0593,-2.0526,-2.0529,-2.0531,-2.0532,-2.0722,-2.0725,0,0,0,0,0,0,-2.0457,-2.0461,-2.0527,-2.0529,-2.0469,-2.0487,-2.0489,-2.0507,-2.0515,-2.0514,-2.0492,-2.0487,-2.0517,-2.0521,-2.0526,-2.0615,-2.0529,-2.0533,-2.0535,-2.0719,-2.0723,-2.0726,0,0,0,0,0,0,-2.0455,-2.0463,-2.0526,-2.0494,-2.0501,-2.0491,-2.0512,-2.0509,-2.0521,-2.0516,-2.0514,-2.0506,-2.0515,-2.0521,-2.0574,-2.0615,-2.0534,-2.0538,-2.0716,-2.0721,-2.0725,-2.0794,0,0,0,0,0,0,-2.0453,-2.0463,-2.0491,-2.0495,-2.0503,-2.0574,-2.0515,-2.0512,-2.0527,-2.0521,-2.0529,-2.0528,-2.0514,-2.057,-2.0578,-2.0619,-2.054,-2.0712,-2.0718,-2.0723,-2.0788,-2.08,-2.081,0,0,0,0,0,-2.045,-2.0509,-2.0492,-2.0501,-2.0537,-2.0576,-2.0581,-2.0563,-2.053,-2.0559,-2.0556,-2.0527,-2.061,-2.0575,-2.0585,-2.0627,-2.071,-2.0716,-2.0723,-2.0783,-2.0797,-2.081,0,0,0,0,0,0,-2.0511,-2.0509,-2.0491,-2.0553,-2.0565,-2.0567,-2.0602,-2.0579,-2.0601,-2.0594,-2.0571,-2.0574,-2.0632,-2.0635,-2.0597,-2.0701,-2.0654,-2.0663,-2.0697,-2.0711,-2.0722,-2.072,-2.0543,0,0,0,0,0,-2.0531,-2.0562,-2.056,-2.0616,-2.0623,-2.0611,-2.0628,-2.0613,-2.0624,-2.0629,-2.063,-2.0643,-2.0672,-2.0691,-2.0718,-2.0788,-2.0789,-2.0822,-2.0833,-2.0842,-2.085,-2.0888,-2.0903,-2.0748,-2.0748,-2.0748,0,0,-2.0575,-2.0578,-2.0599,-2.0628,-2.0635,-2.0669,-2.0616,-2.0653,-2.0678,-2.0635,-2.0685,-2.0687,-2.07,-2.0762,-2.079,-2.0767,-2.0893,-2.0851,-2.0858,-2.0861,-2.0897,-2.0911,-2.0924,-2.0752,-2.0751,-2.0751,0,0,-2.067,-2.0676,-2.0723,-2.0732,-2.0744,-2.0736,-2.0747,-2.0753,-2.0752,-2.0802,-2.0771,-2.08,-2.085,-2.0861,-2.0873,-2.0974,-2.0949,-2.0983,-2.1042,-2.108,-2.1092,-2.1103,-2.114,-2.1153,-2.0991,-2.0991,-2.0991,0,-2.0723,-2.0771,-2.075,-2.079,-2.0804,-2.0767,-2.0815,-2.0825,-2.0845,-2.0856,-2.0829,-2.0892,-2.0898,-2.0962,-2.0987,-2.0998,-2.1011,-2.0982,-2.1092,-2.1102,-2.1112,-2.1147,-2.1161,-2.0995,-2.0995,-2.0994,-2.0994,0,-2.0835,-2.087,-2.0906,-2.0927,-2.0945,-2.0989,-2.0976,-2.0997,-2.0981,-2.0976,-2.1029,-2.1035,-2.1062,-2.1076,-2.1061,-2.1139,-2.1124,-2.1095,-2.1048,-2.1131,-2.1164,-2.1177,-2.1001,-2.1,-2.0999,-2.0998,0,0,-2.097,-2.0978,-2.0992,-2.1001,-2.1012,-2.1039,-2.1081,-2.1107,-2.1126,-2.1142,-2.1178,-2.1221,-2.1195,-2.1208,-2.1194,-2.1227,-2.1308,-2.1194,-2.1194,-2.1216,-2.1396,-2.1418,-2.1433,-2.1292,-2.1294,-2.1296,-2.1395,0,-2.1065,-2.1137,-2.1121,-2.1193,-2.1225,-2.119,-2.1227,-2.1239,-2.1236,-2.1263,-2.126,-2.1292,-2.1254,-2.1262,-2.1293,-2.1292,-2.1344,-2.1284,-2.1325,-2.1327,-2.1323,-2.145,-2.1473,-2.1566,-2.1407,-2.1409,-2.1411,0,-2.1185,-2.1205,-2.1281,-2.1287,-2.13,-2.1334,-2.1357,-2.1383,-2.1395,-2.1391,-2.1407,-2.1387,-2.143,-2.1383,-2.1443,-2.1403,-2.1419,-2.1421,-2.1424,-2.1427,-2.1374,-2.1457,-2.1595,-2.161,-2.1431,-2.1429,-2.1428,0,-2.1276,-2.1322,-2.1373,-2.1382,-2.1391,-2.1416,-2.142,-2.143,-2.1447,-2.1468,-2.1479,-2.1504,-2.1519,-2.1539,-2.1527,-2.1493,-2.159,-2.1541,-2.1588,-2.1588,-2.161,-2.1608,-2.1753,-2.162,-2.162,-2.1619,-2.1619,0,-2.1384,-2.1432,-2.1414,-2.1446,-2.1499,-2.1479,-2.1532,-2.1533,-2.1542,-2.1574,-2.1546,-2.1577,-2.1558,-2.1588,-2.1578,-2.163,-2.1637,-2.1635,-2.1632,-2.1638,-2.1638,-2.1648,-2.1641,-2.1623,-2.1622,-2.1621,-2.1621,0,-2.1495,-2.1485,-2.1539,-2.1543,-2.1545,-2.1584,-2.1587,-2.1617,-2.1613,-2.1653,-2.1662,-2.1655,-2.1688,-2.1678,-2.1714,-2.1708,-2.1773,-2.1762,-2.1769,-2.1766,-2.1814,-2.181,-2.197,-2.199,-2.1844,-2.1845,-2.1847,0,-2.1565,-2.16,-2.1609,-2.1628,-2.1634,-2.1666,-2.1683,-2.1666,-2.1685,-2.1703,-2.1731,-2.1761,-2.1785,-2.184,-2.1839,-2.1867,-2.1856,-2.191,-2.186,-2.1865,-2.1857,-2.1856,-2.1859,-2.192,-2.1922,-2.1923,-2.1924,0,-2.169,-2.1683,-2.1709,-2.1734,-2.1755,-2.1774,-2.179,-2.1807,-2.1791,-2.1814,-2.1848,-2.1866,-2.1903,-2.1935,-2.196,-2.1966,-2.1943,-2.194,-2.1953,-2.1959,-2.1962,-2.1961,-2.1797,-2.1937,-2.1935,-2.1934,-2.1934,-2.1933,-2.1782,-2.1813,-2.1823,-2.1853,-2.1864,-2.188,-2.1908,-2.1907,-2.1934,-2.1963,-2.1951,-2.199,-2.2003,-2.2034,-2.2044,-2.2075,-2.2054,-2.2072,-2.2077,-2.2081,-2.2088,-2.1957,-2.2079,-2.2079,-2.2079,-2.2078,-2.2078,0,-2.1906,-2.1911,-2.1939,-2.1962,-2.1986,-2.1962,-2.1979,-2.2001,-2.2035,-2.2049,-2.2073,-2.2112,-2.2143,-2.2144,-2.2173,-2.2197,-2.2188,-2.2206,-2.2204,-2.2206,-2.2104,-2.2091,-2.2213,-2.2213,-2.2213,-2.2213,-2.2213,-2.2213,-2.1973,-2.2024,-2.2019,-2.2075,-2.208,-2.2117,-2.2129,-2.2144,-2.2155,-2.22,-2.2225,-2.2225,-2.2234,-2.2264,-2.2291,-2.2291,-2.2303,-2.2325,-2.2321,-2.2226,-2.2213,-2.22,-2.2187,-2.2328,-2.2328,-2.242,-2.242,-2.2421]},{"header":{"parameterUnit":"m.s-1","parameterCategory":1,"la1":30.2991,"la2":30.254,"lo1":-89.0895,"lo2":-89.0444,"dy":0.0017,"dx":0.0017,"nx":28,"ny":28,"refTime":"2025-11-20T03:00:00:Z","depth":0,"parameterNumber":3,"parameterNumberName":"V-component_of_WINDS"},"data":[0,0,0,0,0,0,0,0,0,0,0,0,0,0,0,0,0,0,0,0,0,0,0,0,0,0,0,0,0,0,0,0,0,0,0,0,0,0,0,0,0,0,0,0,0,0,0,0,0,0,0,0,0,0,0,0,0,0,0.5508,0.5507,0,0.547,0.547,0.5469,0.5451,0.5451,0.5451,0.5451,0.5411,0.541,0.5409,0,0,0,0,0,0,0,0,0,0,0,0,0,0.5563,0.5562,0.5508,0.5507,0.5507,0.547,0.547,0.5469,0.5451,0.5451,0.5451,0.5451,0.5412,0.5411,0.5409,0,0,0,0,0,0,0,0,0,0,0,0,0,0.5534,0.5562,0.5508,0.5493,0.5492,0.547,0.547,0.5469,0.5451,0.5451,0.5451,0.5451,0.5412,0.5411,0.5409,0.5399,0,0,0.5404,0.5403,0,0,0,0,0,0,0,0,0.5535,0.5532,0.5496,0.5494,0.5493,0.5466,0.5475,0.5445,0.5451,0.5467,0.5451,0.5451,0.5429,0.5426,0.5419,0.5397,0.5395,0.5404,0.5403,0.5402,0.5402,0,0,0,0,0,0,0,0.5538,0.5533,0.5493,0.5496,0.5493,0.5489,0.5485,0.5469,0.5448,0.5465,0.5464,0.546,0.5428,0.5421,0.5418,0.5395,0.5404,0.5403,0.5402,0.5401,0.5363,0.5363,0,0,0,0,0,0,0.5542,0.5535,0.5494,0.5492,0.5515,0.5488,0.5483,0.5474,0.5448,0.5445,0.546,0.5459,0.5424,0.542,0.5417,0.5403,0.5402,0.5401,0.54,0.5363,0.5363,0.5363,0,0,0,0,0,0,0.5543,0.5539,0.5496,0.5513,0.5507,0.5487,0.5477,0.5473,0.5466,0.5444,0.544,0.5456,0.5423,0.5419,0.5404,0.5402,0.54,0.5399,0.5363,0.5363,0.5363,0.5376,0,0,0,0,0,0,0.5545,0.5539,0.5535,0.5513,0.5506,0.5483,0.5477,0.5473,0.5463,0.5462,0.544,0.5436,0.5423,0.5406,0.5402,0.5399,0.5397,0.5363,0.5363,0.5363,0.5376,0.5377,0.5377,0,0,0,0,0,0.5547,0.554,0.5535,0.553,0.5501,0.5483,0.5479,0.5465,0.5463,0.5459,0.5445,0.5437,0.5403,0.5405,0.54,0.5397,0.5363,0.5363,0.5363,0.5376,0.5376,0.5377,0,0,0,0,0,0,0.5561,0.5537,0.5531,0.5516,0.5502,0.548,0.5474,0.5466,0.5452,0.5451,0.5434,0.5429,0.5416,0.5405,0.5407,0.5386,0.5382,0.5381,0.5393,0.5394,0.5395,0.5398,0.5396,0,0,0,0,0,0.5563,0.5551,0.553,0.5519,0.5512,0.5495,0.5486,0.5477,0.5461,0.5455,0.544,0.5425,0.5411,0.5402,0.5388,0.5374,0.5369,0.537,0.5371,0.5371,0.5371,0.5363,0.5364,0.5362,0.5362,0.5362,0,0,0.5565,0.5551,0.5544,0.5522,0.5509,0.5497,0.549,0.5477,0.5468,0.5453,0.5438,0.5426,0.5408,0.5394,0.5387,0.5385,0.537,0.5371,0.5372,0.5371,0.5363,0.5363,0.5364,0.5362,0.5362,0.5362,0,0,0.5564,0.5552,0.5542,0.553,0.5512,0.5501,0.5499,0.5478,0.547,0.5455,0.5444,0.5433,0.5409,0.5397,0.5387,0.5383,0.5375,0.5379,0.5383,0.5376,0.5376,0.5376,0.5375,0.5375,0.5379,0.5379,0.5379,0,0.557,0.5551,0.5538,0.5526,0.5517,0.5504,0.5493,0.5483,0.5461,0.5455,0.5452,0.5423,0.541,0.5393,0.5392,0.5385,0.5382,0.5381,0.5377,0.5377,0.5377,0.5376,0.5375,0.5379,0.5379,0.5379,0.5379,0,0.5559,0.5547,0.5541,0.5521,0.5511,0.5501,0.5485,0.5477,0.5468,0.5457,0.5442,0.5426,0.5409,0.5405,0.5396,0.5387,0.5386,0.5381,0.5376,0.5378,0.5377,0.5376,0.538,0.538,0.538,0.538,0,0,0.5565,0.5539,0.5537,0.5528,0.5508,0.5498,0.5487,0.5471,0.5464,0.545,0.544,0.5421,0.5417,0.5406,0.5396,0.539,0.5389,0.5386,0.5385,0.5387,0.5378,0.5382,0.5382,0.5384,0.5383,0.5383,0.538,0,0.5561,0.5541,0.5529,0.5514,0.5502,0.549,0.5481,0.5467,0.5457,0.5446,0.5434,0.5421,0.5416,0.541,0.5403,0.539,0.5387,0.539,0.5374,0.5374,0.5379,0.5381,0.5385,0.5383,0.5379,0.5379,0.5379,0,0.5554,0.5541,0.5525,0.5507,0.5502,0.5493,0.5478,0.5468,0.5453,0.5446,0.5435,0.5425,0.5413,0.541,0.5394,0.5396,0.5389,0.5382,0.5382,0.5379,0.5376,0.5379,0.5382,0.5381,0.5378,0.5378,0.5378,0,0.556,0.5538,0.5526,0.5519,0.5498,0.5492,0.5483,0.5468,0.546,0.5447,0.5441,0.5426,0.5418,0.5407,0.5394,0.5393,0.5379,0.5375,0.5372,0.5373,0.537,0.537,0.5371,0.5365,0.5365,0.5365,0.5365,0,0.5557,0.5547,0.5529,0.5521,0.5511,0.5497,0.5487,0.5477,0.5464,0.5454,0.5443,0.5434,0.5417,0.5406,0.5396,0.5384,0.538,0.5374,0.5371,0.5375,0.5376,0.537,0.537,0.5365,0.5365,0.5365,0.5365,0,0.5561,0.5548,0.5534,0.5516,0.5512,0.5505,0.5489,0.5481,0.5471,0.5459,0.5455,0.5439,0.5425,0.5411,0.5393,0.5386,0.5375,0.5371,0.538,0.5378,0.5377,0.5378,0.5374,0.5373,0.5368,0.5368,0.5368,0,0.556,0.5553,0.5534,0.5527,0.5519,0.5508,0.5499,0.5486,0.5478,0.5461,0.5455,0.5441,0.5429,0.5409,0.5395,0.5381,0.5377,0.5377,0.5375,0.5379,0.5377,0.5378,0.5377,0.5378,0.5378,0.5378,0.5378,0,0.5559,0.5554,0.5542,0.5529,0.552,0.5509,0.5497,0.5492,0.5476,0.5467,0.5454,0.5445,0.5427,0.5414,0.5398,0.5389,0.5381,0.5379,0.5378,0.5381,0.5387,0.5384,0.5382,0.5379,0.5379,0.5379,0.5379,0.5379,0.5561,0.5554,0.5541,0.5529,0.5519,0.5508,0.5501,0.549,0.5479,0.5464,0.5456,0.5443,0.5429,0.5408,0.5399,0.5389,0.5386,0.5384,0.5384,0.5384,0.5385,0.5389,0.5386,0.5386,0.5386,0.5386,0.5386,0,0.556,0.5551,0.554,0.5525,0.5515,0.551,0.5497,0.5489,0.5478,0.5466,0.5455,0.5441,0.5428,0.5414,0.54,0.5394,0.539,0.5391,0.5391,0.5389,0.5388,0.539,0.5395,0.5395,0.5395,0.5395,0.5395,0.5395,0.5558,0.5547,0.554,0.5524,0.5515,0.5502,0.5496,0.5486,0.5477,0.5461,0.5451,0.5442,0.5429,0.5415,0.5403,0.5399,0.5395,0.5397,0.5392,0.539,0.5389,0.5389,0.5391,0.5396,0.5396,0.5394,0.5394,0.5394]}]]